RADUGA-1M 1 [-]

Last updated on July 6, 2021, 3:35 p.m. UTC

1 32373U 07058A   21186.83101983  .00000041  00000-0  00000+0 0  9993
2 32373   6.1359  66.3527 0005472   2.8275 357.1863  0.99398068 50353
UTC
Height (km)
Latitude
Longitude
Inclination
Orbital Period
UTC large
Height (km)
Speed (km/s)
/
Latitude / Longitude
Inclination (degrees)
Orbital Period (minutes)
Azimuth
Elevation
Range (km)
Doppler Factor
iOS Compass Heading
iOS Angle